Weather History for Two Harbors, MN

Change the Weather History Date:

Thursday, November 24, 2011

  Actual Average Record
Temperature  
Mean Temperature 40 °F -  
Max Temperature 50 °F 33 °F 53 °F (2006)
Min Temperature 30 °F 19 °F -14 °F (1997)
Degree Days  
Heating Degree Days 25    
Moisture  
Dew Point 31 °F    
Average Humidity 75    
Maximum Humidity 87    
Minimum Humidity 58    
Precipitation  
Precipitation 0.00 in - - ()
Sea Level Pressure  
Sea Level Pressure 29.77 in    
Wind  
Wind Speed 6 mph (SW)    
Max Wind Speed 16 mph    
Max Gust Speed 24 mph    
Visibility 5 miles    
Events      
Averages and records for this station are not official NWS values.
T = Trace of Precipitation, MM = Missing Value Source: NWS Daily Summary

Daily Weather History Graph

Daily Weather History Graph

Search for Another Location

Airport:

Trip Planner

Search our weather history database for the weather conditions in past years. The results will help you decide how hot, cold, wet, or windy it might be!

Date:

Astronomy

Nov. 24, 2011 Rise Set
Actual Time 7:22 AM CST 4:24 PM CST
Civil Twilight 6:48 AM CST 4:58 PM CST
Nautical Twilight 6:11 AM CST 5:35 PM CST
Astronomical Twilight 5:34 AM CST 6:12 PM CST
Moon 6:42 AM CST (11/24) 3:52 PM CST (11/24)
Length of Visible Light 10h 09m
Length of Day
9h 01m
Waning Crescent, 0% of the Moon is Illuminated
Nov 24
Waning Crescent
Nov 25
New
Dec 2
First Quarter
Dec 10
Full
Dec 17
Last Quarter

Hourly Weather History & Observations

Time (CST) Temp. Windchill Dew Point Humidity Pressure Visibility Wind Dir Wind Speed Gust Speed Precip Events Conditions
12:12 AM 33.8 °F 30.8 °F 28.4 °F 81% 29.89 in 4.0 mi SW 3.5 mph - N/A   Haze
12:33 AM 32.0 °F 28.7 °F 26.6 °F 80% 29.88 in 2.5 mi WSW 3.5 mph - N/A   Haze
12:52 AM 33.8 °F 29.6 °F 28.4 °F 81% 29.88 in 3.0 mi WSW 4.6 mph - N/A   Haze
1:13 AM 33.8 °F 29.6 °F 28.4 °F 81% 29.87 in 3.0 mi WSW 4.6 mph - N/A   Haze
1:33 AM 33.8 °F 29.6 °F 28.4 °F 81% 29.86 in 2.5 mi SW 4.6 mph - N/A   Haze
1:52 AM 33.8 °F 29.6 °F 28.4 °F 81% 29.86 in 2.5 mi SW 4.6 mph - N/A   Haze
2:13 AM 33.8 °F 29.6 °F 28.4 °F 81% 29.86 in 2.0 mi SW 4.6 mph - N/A   Haze
2:33 AM 33.8 °F 30.8 °F 28.4 °F 81% 29.86 in 1.8 mi SW 3.5 mph - N/A   Haze
2:53 AM 32.0 °F 28.7 °F 28.4 °F 87% 29.86 in 1.5 mi SW 3.5 mph - N/A   Mist
3:12 AM 32.0 °F - 26.6 °F 80% 29.85 in 1.5 mi Calm Calm - N/A   Haze
3:33 AM 30.2 °F - 26.6 °F 86% 29.84 in 1.2 mi Calm Calm - N/A   Haze
3:53 AM 30.2 °F - 26.6 °F 86% 29.84 in 1.2 mi Calm Calm - N/A   Haze
4:12 AM 30.2 °F - 26.6 °F 86% 29.84 in 1.0 mi Calm Calm - N/A   Haze
4:33 AM 32.0 °F 28.7 °F 26.6 °F 80% 29.83 in 1.5 mi SW 3.5 mph - N/A   Haze
4:53 AM 30.2 °F 25.4 °F 26.6 °F 86% 29.83 in 1.5 mi SW 4.6 mph - N/A   Mist
5:12 AM 32.0 °F 27.5 °F 26.6 °F 80% 29.82 in 1.8 mi SSW 4.6 mph - N/A   Haze
5:33 AM 32.0 °F 27.5 °F 26.6 °F 80% 29.82 in 1.8 mi SW 4.6 mph - N/A   Haze
5:53 AM 32.0 °F 27.5 °F 26.6 °F 80% 29.81 in 1.8 mi SW 4.6 mph - N/A   Haze
6:13 AM 32.0 °F 27.5 °F 26.6 °F 80% 29.81 in 1.8 mi SW 4.6 mph - N/A   Haze
6:33 AM 32.0 °F 28.7 °F 26.6 °F 80% 29.80 in 1.8 mi SW 3.5 mph - N/A   Haze
7:12 AM 30.2 °F 26.7 °F 26.6 °F 86% 29.80 in 1.8 mi WSW 3.5 mph - N/A   Haze
7:33 AM 32.0 °F 26.4 °F 26.6 °F 80% 29.80 in 1.8 mi SW 5.8 mph - N/A   Haze
8:13 AM 33.8 °F 27.7 °F 28.4 °F 81% 29.78 in 1.8 mi SW 6.9 mph - N/A   Haze
8:33 AM 33.8 °F 27.7 °F 28.4 °F 81% 29.78 in 2.0 mi SW 6.9 mph - N/A   Haze
8:53 AM 33.8 °F 27.0 °F 28.4 °F 81% 29.77 in 2.0 mi SW 8.1 mph - N/A   Haze
9:13 AM 35.6 °F 28.6 °F 30.2 °F 81% 29.77 in 2.0 mi WSW 9.2 mph - N/A   Clear
9:32 AM 37.4 °F 30.8 °F 33.8 °F 87% 29.77 in 3.0 mi SW 9.2 mph - N/A   Haze
9:53 AM 41.0 °F 33.9 °F 35.6 °F 81% 29.76 in 4.0 mi SSW 12.7 mph 17.3 mph N/A   Haze
10:32 AM 42.8 °F 35.1 °F 33.8 °F 70% 29.75 in 5.0 mi SW 16.1 mph 20.7 mph N/A   Haze
10:53 AM 42.8 °F 35.8 °F 35.6 °F 76% 29.74 in 5.0 mi SW 13.8 mph 24.2 mph N/A   Haze
11:13 AM 44.6 °F 38.1 °F 33.8 °F 66% 29.73 in 7.0 mi SW 13.8 mph 21.9 mph N/A   Clear
11:32 AM 44.6 °F 38.4 °F 35.6 °F 71% 29.73 in 7.0 mi SW 12.7 mph 16.1 mph N/A   Clear
11:53 AM 46.4 °F 41.1 °F 35.6 °F 66% 29.71 in 7.0 mi SSW 11.5 mph - N/A   Clear
12:13 PM 46.4 °F 41.1 °F 35.6 °F 66% 29.70 in 7.0 mi SSW 11.5 mph 16.1 mph N/A   Clear
12:32 PM 46.4 °F 41.1 °F 35.6 °F 66% 29.70 in 10.0 mi SSW 11.5 mph - N/A   Clear
12:53 PM 46.4 °F 40.4 °F 35.6 °F 66% 29.69 in 7.0 mi SSW 13.8 mph - N/A   Clear
1:13 PM 46.4 °F 41.1 °F 35.6 °F 66% 29.69 in 10.0 mi SSW 11.5 mph - N/A   Clear
1:32 PM 48.2 °F - 35.6 °F 62% 29.68 in 10.0 mi SSW 10.4 mph - N/A   Clear
1:53 PM 50.0 °F - 35.6 °F 58% 29.68 in 10.0 mi SSW 15.0 mph - N/A   Clear
2:13 PM 50.0 °F - 35.6 °F 58% 29.67 in 10.0 mi SW 15.0 mph - N/A   Clear
2:33 PM 50.0 °F - 35.6 °F 58% 29.67 in 10.0 mi SW 13.8 mph 19.6 mph N/A   Clear
2:52 PM 48.2 °F - 35.6 °F 62% 29.68 in 10.0 mi SSW 10.4 mph 17.3 mph N/A   Clear
3:13 PM 48.2 °F - 35.6 °F 62% 29.67 in 10.0 mi SW 11.5 mph 17.3 mph N/A   Clear
3:33 PM 48.2 °F - 35.6 °F 62% 29.67 in 10.0 mi SSW 9.2 mph - N/A   Clear
4:13 PM 46.4 °F 42.4 °F 33.8 °F 62% 29.67 in 10.0 mi SW 8.1 mph - N/A   Clear
4:33 PM 44.6 °F 40.2 °F 33.8 °F 66% 29.68 in 10.0 mi SW 8.1 mph - N/A   Clear
4:53 PM 42.8 °F 38.6 °F 33.8 °F 70% 29.67 in 10.0 mi SW 6.9 mph - N/A   Clear
5:13 PM 44.6 °F 41.4 °F 33.8 °F 66% 29.68 in 10.0 mi WSW 5.8 mph - N/A   Clear
5:33 PM 42.8 °F 41.1 °F 33.8 °F 70% 29.68 in 10.0 mi West 3.5 mph - N/A   Clear
5:53 PM 41.0 °F 38.0 °F 32.0 °F 70% 29.67 in 10.0 mi West 4.6 mph - N/A   Clear
6:13 PM 41.0 °F 38.0 °F 33.8 °F 76% 29.67 in 10.0 mi WSW 4.6 mph - N/A   Clear
6:33 PM 41.0 °F 37.1 °F 33.8 °F 76% 29.67 in 10.0 mi WSW 5.8 mph - N/A   Clear
6:53 PM 41.0 °F 38.0 °F 33.8 °F 76% 29.67 in 10.0 mi West 4.6 mph - N/A   Clear
7:13 PM 42.8 °F 38.6 °F 33.8 °F 70% 29.68 in 10.0 mi West 6.9 mph - N/A   Clear
7:33 PM 41.0 °F 38.0 °F 33.8 °F 76% 29.68 in 10.0 mi West 4.6 mph - N/A   Clear
7:53 PM 41.0 °F 36.4 °F 33.8 °F 76% 29.67 in 7.0 mi West 6.9 mph - N/A   Clear
8:13 PM 41.0 °F 35.8 °F 33.8 °F 76% 29.67 in 7.0 mi West 8.1 mph - N/A   Clear
8:33 PM 42.8 °F 38.0 °F 35.6 °F 76% 29.67 in 7.0 mi WSW 8.1 mph - N/A   Clear
8:53 PM 42.8 °F 38.0 °F 35.6 °F 76% 29.67 in 7.0 mi WSW 8.1 mph - N/A   Clear
9:12 PM 42.8 °F 39.3 °F 35.6 °F 76% 29.66 in 7.0 mi WSW 5.8 mph - N/A   Clear
9:53 PM 42.8 °F 39.3 °F 35.6 °F 76% 29.65 in 7.0 mi West 5.8 mph - N/A   Clear
10:12 PM 39.2 °F 35.9 °F 33.8 °F 81% 29.64 in 7.0 mi West 4.6 mph - N/A   Clear
10:33 PM 37.4 °F 34.9 °F 33.8 °F 87% 29.64 in 5.0 mi WNW 3.5 mph - N/A   Haze
10:53 PM 39.2 °F 35.9 °F 33.8 °F 81% 29.64 in 7.0 mi WNW 4.6 mph - N/A   Clear
11:33 PM 37.4 °F 33.8 °F 33.8 °F 87% 29.64 in 5.0 mi West 4.6 mph - N/A   Clear
11:52 PM 37.4 °F 34.9 °F 33.8 °F 87% 29.65 in 5.0 mi WNW 3.5 mph - N/A   Haze